{"data":{"norad_id":46079,"intl_designator":"2020-055BE","name":"STARLINK-1566","alt_names":[],"object_type":"PAYLOAD","status":"ACTIVE","operator":null,"country":"US","launch_date":"2020-08-07","launch_site_code":"AFETR","launch_vehicle":null,"mission":null,"orbit_class":"UNKNOWN","rcs_meters":null,"size_class":null,"mass_kg":null,"dimensions":null,"purposes":["comms"],"wikipedia_slug":null,"has_3d_model":false,"image_url":null,"decayed_at":null,"tle_current":{"epoch":"2026-09-19T17:53:21.873120Z","epoch_age_seconds":83444,"freshness":"FRESH","line1":"1 46079U 20055BE  26262.74539205  .00000163  00000+0  17034-4 0  9999","line2":"2 46079  53.1591 278.0373 0001603  71.7298 288.3877 15.31702039338970","mean_motion":15.31702039,"eccentricity":0.0001603,"inclination_deg":53.1591,"raan_deg":278.0373,"arg_perigee_deg":71.7298,"mean_anomaly_deg":288.3877,"bstar":1.7034e-5,"rev_number":33897,"period_min":94.013062810841,"perigee_km":469.63604307148,"apogee_km":471.8317910875,"semimajor_km":6848.8709170795,"source":"CELESTRAK","updated_at":"2026-09-20T09:00:38.465882Z"}}}